Time,TemperatureF,DewpointF,PressureIn,WindDirection,WindDirectionDegrees,WindSpeedMPH,WindSpeedGustMPH,Humidity,HourlyPrecipIn,Conditions,Clouds,dailyrainin,SoftwareType,DateUTC
2013-08-30 00:05:00,79.8,68.3,29.76,South,176,1.0,1.0,68,0.00,,,0.00,Wunderground v.1.15,2013-08-30 05:05:00,
2013-08-30 00:15:00,79.4,67.9,29.75,SSE,148,1.0,2.0,68,0.00,,,0.00,Wunderground v.1.15,2013-08-30 05:15:00,
2013-08-30 00:20:00,79.4,67.9,29.75,South,175,1.0,1.0,68,0.00,,,0.00,Wunderground v.1.15,2013-08-30 05:20:00,
2013-08-30 00:25:00,79.2,67.7,29.75,South,175,1.0,1.0,68,0.00,,,0.00,Wunderground v.1.15,2013-08-30 05:25:00,
2013-08-30 00:35:00,78.8,67.8,29.76,South,169,1.0,1.0,69,0.00,,,0.00,Wunderground v.1.15,2013-08-30 05:35:00,
2013-08-30 00:45:00,78.6,68.0,29.76,South,191,3.0,3.0,70,0.00,,,0.00,Wunderground v.1.15,2013-08-30 05:45:00,
2013-08-30 00:55:00,78.5,67.9,29.76,SW,222,2.0,6.0,70,0.00,,,0.00,Wunderground v.1.15,2013-08-30 05:55:00,
2013-08-30 01:00:00,78.5,67.9,29.76,SSW,195,2.0,2.0,70,0.00,,,0.00,Wunderground v.1.15,2013-08-30 06:00:00,
2013-08-30 01:10:00,78.3,68.1,29.76,SSW,202,4.0,6.0,71,0.00,,,0.00,Wunderground v.1.15,2013-08-30 06:10:00,
2013-08-30 01:20:00,78.3,68.1,29.76,South,179,4.0,4.0,71,0.00,,,0.00,Wunderground v.1.15,2013-08-30 06:20:00,
2013-08-30 01:30:00,78.3,68.1,29.75,SSW,206,4.0,6.0,71,0.00,,,0.00,Wunderground v.1.15,2013-08-30 06:30:00,
2013-08-30 01:35:00,78.3,68.1,29.75,SSW,205,4.0,6.0,71,0.00,,,0.00,Wunderground v.1.15,2013-08-30 06:35:00,
2013-08-30 01:45:00,78.3,68.5,29.75,SW,215,5.0,9.0,72,0.00,,,0.00,Wunderground v.1.15,2013-08-30 06:45:00,
2013-08-30 01:55:00,78.1,68.3,29.75,SSW,212,7.0,7.0,72,0.00,,,0.00,Wunderground v.1.15,2013-08-30 06:55:00,
2013-08-30 02:00:00,78.3,68.5,29.75,SW,230,7.0,7.0,72,0.00,,,0.00,Wunderground v.1.15,2013-08-30 07:00:00,
2013-08-30 02:10:00,78.3,68.5,29.75,SSW,199,7.0,7.0,72,0.00,,,0.00,Wunderground v.1.15,2013-08-30 07:10:00,
2013-08-30 02:20:00,78.1,68.3,29.76,WSW,239,6.0,6.0,72,0.00,,,0.00,Wunderground v.1.15,2013-08-30 07:20:00,
2013-08-30 02:30:00,78.1,68.3,29.76,SSW,212,7.0,8.0,72,0.00,,,0.00,Wunderground v.1.15,2013-08-30 07:30:00,
2013-08-30 02:40:00,77.9,68.1,29.76,SW,216,7.0,7.0,72,0.00,,,0.00,Wunderground v.1.15,2013-08-30 07:40:00,
2013-08-30 02:45:00,77.7,68.0,29.76,SSW,210,7.0,8.0,72,0.00,,,0.00,Wunderground v.1.15,2013-08-30 07:45:00,
2013-08-30 02:55:00,77.7,68.0,29.76,West,265,7.0,9.0,72,0.00,,,0.00,Wunderground v.1.15,2013-08-30 07:55:00,
2013-08-30 03:05:00,77.4,67.7,29.76,SW,216,7.0,9.0,72,0.00,,,0.00,Wunderground v.1.15,2013-08-30 08:05:00,
2013-08-30 03:15:00,77.0,67.3,29.76,SW,233,7.0,9.0,72,0.00,,,0.00,Wunderground v.1.15,2013-08-30 08:15:00,
2013-08-30 03:25:00,76.8,67.1,29.76,SSW,203,6.0,7.0,72,0.00,,,0.00,Wunderground v.1.15,2013-08-30 08:25:00,
2013-08-30 03:30:00,76.7,67.0,29.76,SSW,206,6.0,7.0,72,0.00,,,0.00,Wunderground v.1.15,2013-08-30 08:30:00,
2013-08-30 03:40:00,76.7,67.0,29.76,SW,217,7.0,7.0,72,0.00,,,0.00,Wunderground v.1.15,2013-08-30 08:40:00,
2013-08-30 03:50:00,76.7,67.0,29.76,WSW,256,7.0,7.0,72,0.00,,,0.00,Wunderground v.1.15,2013-08-30 08:50:00,
2013-08-30 03:55:00,76.5,66.8,29.76,SSW,213,7.0,7.0,72,0.00,,,0.00,Wunderground v.1.15,2013-08-30 08:55:00,
2013-08-30 04:05:00,76.3,67.0,29.76,SSW,208,7.0,7.0,73,0.00,,,0.00,Wunderground v.1.15,2013-08-30 09:05:00,
2013-08-30 04:15:00,76.1,66.8,29.76,SSW,210,7.0,7.0,73,0.00,,,0.00,Wunderground v.1.15,2013-08-30 09:15:00,
2013-08-30 04:25:00,76.0,66.7,29.76,SSW,203,7.0,8.0,73,0.00,,,0.00,Wunderground v.1.15,2013-08-30 09:25:00,
2013-08-30 04:30:00,76.0,66.7,29.76,SSW,202,7.0,7.0,73,0.00,,,0.00,Wunderground v.1.15,2013-08-30 09:30:00,
2013-08-30 04:40:00,75.6,66.3,29.76,SW,217,7.0,9.0,73,0.00,,,0.00,Wunderground v.1.15,2013-08-30 09:40:00,
2013-08-30 04:45:00,75.6,66.3,29.76,SSW,213,7.0,9.0,73,0.00,,,0.00,Wunderground v.1.15,2013-08-30 09:45:00,
2013-08-30 04:55:00,75.6,66.3,29.76,SW,219,6.0,9.0,73,0.00,,,0.00,Wunderground v.1.15,2013-08-30 09:55:00,
2013-08-30 05:00:00,75.4,66.1,29.76,SSW,200,7.0,7.0,73,0.00,,,0.00,Wunderground v.1.15,2013-08-30 10:00:00,
2013-08-30 05:10:00,75.4,66.1,29.76,SSW,213,8.0,8.0,73,0.00,,,0.00,Wunderground v.1.15,2013-08-30 10:10:00,
2013-08-30 05:15:00,75.6,66.3,29.74,SW,217,8.0,9.0,73,0.00,,,0.00,Wunderground v.1.15,2013-08-30 10:15:00,
2013-08-30 05:25:00,75.6,66.3,29.74,SSW,212,8.0,10.0,73,0.00,,,0.00,Wunderground v.1.15,2013-08-30 10:25:00,
2013-08-30 05:35:00,75.4,66.1,29.74,SSW,199,8.0,9.0,73,0.00,,,0.00,Wunderground v.1.15,2013-08-30 10:35:00,
2013-08-30 05:45:00,75.3,66.0,29.74,SSW,205,8.0,9.0,73,0.00,,,0.00,Wunderground v.1.15,2013-08-30 10:45:00,
2013-08-30 05:50:00,75.1,65.9,29.74,SSW,202,8.0,8.0,73,0.00,,,0.00,Wunderground v.1.15,2013-08-30 10:50:00,
2013-08-30 06:00:00,74.9,65.7,29.74,SSW,202,8.0,8.0,73,0.00,,,0.00,Wunderground v.1.15,2013-08-30 11:00:00,
2013-08-30 06:10:00,74.9,65.7,29.74,SSW,199,6.0,6.0,73,0.00,,,0.00,Wunderground v.1.15,2013-08-30 11:10:00,
2013-08-30 06:15:00,74.9,65.7,29.75,SW,217,8.0,8.0,73,0.00,,,0.00,Wunderground v.1.15,2013-08-30 11:15:00,
2013-08-30 06:25:00,74.7,65.5,29.75,SSW,210,7.0,10.0,73,0.00,,,0.00,Wunderground v.1.15,2013-08-30 11:25:00,
2013-08-30 06:30:00,74.7,65.9,29.75,SSW,202,8.0,8.0,74,0.00,,,0.00,Wunderground v.1.15,2013-08-30 11:30:00,
2013-08-30 06:40:00,74.6,65.8,29.75,SSW,209,7.0,7.0,74,0.00,,,0.00,Wunderground v.1.15,2013-08-30 11:40:00,
2013-08-30 06:45:00,74.6,65.8,29.75,SSW,208,7.0,7.0,74,0.00,,,0.00,Wunderground v.1.15,2013-08-30 11:45:00,
2013-08-30 06:55:00,74.4,65.6,29.75,SSW,210,7.0,7.0,74,0.00,,,0.00,Wunderground v.1.15,2013-08-30 11:55:00,
2013-08-30 07:05:00,74.4,65.6,29.75,SSW,213,8.0,8.0,74,0.00,,,0.00,Wunderground v.1.15,2013-08-30 12:05:00,
2013-08-30 07:10:00,74.4,65.6,29.75,SSW,195,7.0,7.0,74,0.00,,,0.00,Wunderground v.1.15,2013-08-30 12:10:00,
2013-08-30 07:20:00,74.4,65.6,29.76,SSW,202,7.0,7.0,74,0.00,,,0.00,Wunderground v.1.15,2013-08-30 12:20:00,
2013-08-30 07:30:00,74.7,65.9,29.76,SSW,203,7.0,8.0,74,0.00,,,0.00,Wunderground v.1.15,2013-08-30 12:30:00,
2013-08-30 07:35:00,74.9,66.1,29.76,South,191,7.0,8.0,74,0.00,,,0.00,Wunderground v.1.15,2013-08-30 12:35:00,
2013-08-30 07:45:00,74.9,65.7,29.76,SSW,199,8.0,8.0,73,0.00,,,0.00,Wunderground v.1.15,2013-08-30 12:45:00,
2013-08-30 07:50:00,74.9,65.7,29.76,SSW,205,8.0,10.0,73,0.00,,,0.00,Wunderground v.1.15,2013-08-30 12:50:00,
2013-08-30 08:00:00,75.6,66.7,29.76,SSW,205,6.0,7.0,74,0.00,,,0.00,Wunderground v.1.15,2013-08-30 13:00:00,
2013-08-30 08:10:00,75.8,66.9,29.76,SW,236,7.0,7.0,74,0.00,,,0.00,Wunderground v.1.15,2013-08-30 13:10:00,
2013-08-30 08:15:00,76.0,67.1,29.77,SW,219,7.0,9.0,74,0.00,,,0.00,Wunderground v.1.15,2013-08-30 13:15:00,
2013-08-30 08:25:00,76.3,67.0,29.77,SSW,210,8.0,8.0,73,0.00,,,0.00,Wunderground v.1.15,2013-08-30 13:25:00,
2013-08-30 08:35:00,76.8,67.5,29.77,SSW,195,8.0,8.0,73,0.00,,,0.00,Wunderground v.1.15,2013-08-30 13:35:00,
2013-08-30 08:40:00,76.8,67.5,29.77,SSW,213,8.0,8.0,73,0.00,,,0.00,Wunderground v.1.15,2013-08-30 13:40:00,
2013-08-30 08:50:00,77.2,67.9,29.77,SSW,200,7.0,10.0,73,0.00,,,0.00,Wunderground v.1.15,2013-08-30 13:50:00,
2013-08-30 09:00:00,78.3,68.5,29.76,SW,215,8.0,8.0,72,0.00,,,0.00,Wunderground v.1.15,2013-08-30 14:00:00,
2013-08-30 09:05:00,79.0,69.2,29.76,SW,227,8.0,11.0,72,0.00,,,0.00,Wunderground v.1.15,2013-08-30 14:05:00,
2013-08-30 09:15:00,79.8,69.6,29.76,SW,227,9.0,10.0,71,0.00,,,0.00,Wunderground v.1.15,2013-08-30 14:15:00,
2013-08-30 09:25:00,80.3,69.6,29.76,SW,215,8.0,11.0,70,0.00,,,0.00,Wunderground v.1.15,2013-08-30 14:25:00,
2013-08-30 09:30:00,80.5,69.8,29.76,SSW,212,9.0,9.0,70,0.00,,,0.00,Wunderground v.1.15,2013-08-30 14:30:00,
2013-08-30 09:40:00,81.1,70.0,29.76,SW,232,9.0,9.0,69,0.00,,,0.00,Wunderground v.1.15,2013-08-30 14:40:00,
2013-08-30 09:45:00,81.4,70.2,29.76,SSW,210,9.0,9.0,69,0.00,,,0.00,Wunderground v.1.15,2013-08-30 14:45:00,
2013-08-30 09:55:00,82.0,70.4,29.76,SW,215,10.0,14.0,68,0.00,,,0.00,Wunderground v.1.15,2013-08-30 14:55:00,
2013-08-30 10:05:00,82.4,70.3,29.76,SW,217,10.0,10.0,67,0.00,,,0.00,Wunderground v.1.15,2013-08-30 15:05:00,
2013-08-30 10:15:00,82.8,70.7,29.76,WSW,237,10.0,11.0,67,0.00,,,0.00,Wunderground v.1.15,2013-08-30 15:15:00,
2013-08-30 10:20:00,82.8,70.3,29.76,WSW,243,10.0,13.0,66,0.00,,,0.00,Wunderground v.1.15,2013-08-30 15:20:00,
2013-08-30 10:30:00,83.6,71.5,29.75,SW,222,9.0,10.0,67,0.00,,,0.00,Wunderground v.1.15,2013-08-30 15:30:00,
2013-08-30 10:35:00,83.8,71.2,29.75,SW,217,9.0,10.0,66,0.00,,,0.00,Wunderground v.1.15,2013-08-30 15:35:00,
2013-08-30 10:45:00,84.3,71.2,29.75,SW,224,9.0,9.0,65,0.00,,,0.00,Wunderground v.1.15,2013-08-30 15:45:00,
2013-08-30 10:55:00,84.7,71.6,29.75,SW,223,10.0,15.0,65,0.00,,,0.00,Wunderground v.1.15,2013-08-30 15:55:00,
2013-08-30 11:00:00,84.9,71.8,29.75,WSW,237,10.0,10.0,65,0.00,,,0.00,Wunderground v.1.15,2013-08-30 16:00:00,
2013-08-30 11:10:00,85.5,71.9,29.75,SW,226,9.0,9.0,64,0.00,,,0.00,Wunderground v.1.15,2013-08-30 16:10:00,
2013-08-30 11:15:00,85.9,72.3,29.75,SW,230,9.0,11.0,64,0.00,,,0.00,Wunderground v.1.15,2013-08-30 16:15:00,
2013-08-30 11:25:00,86.3,72.2,29.75,SW,217,9.0,10.0,63,0.00,,,0.00,Wunderground v.1.15,2013-08-30 16:25:00,
2013-08-30 11:30:00,86.5,72.4,29.75,WSW,237,9.0,9.0,63,0.00,,,0.00,Wunderground v.1.15,2013-08-30 16:30:00,
2013-08-30 11:40:00,87.6,73.4,29.75,SW,217,7.0,8.0,63,0.00,,,0.00,Wunderground v.1.15,2013-08-30 16:40:00,
2013-08-30 11:50:00,87.8,73.2,29.74,SW,220,8.0,10.0,62,0.00,,,0.00,Wunderground v.1.15,2013-08-30 16:50:00,
2013-08-30 12:00:00,88.2,73.5,29.74,SW,224,8.0,9.0,62,0.00,,,0.00,Wunderground v.1.15,2013-08-30 17:00:00,
2013-08-30 12:10:00,88.6,73.4,29.74,SW,217,7.0,7.0,61,0.00,,,0.00,Wunderground v.1.15,2013-08-30 17:10:00,
2013-08-30 12:15:00,88.8,73.6,29.74,SSW,212,7.0,10.0,61,0.00,,,0.00,Wunderground v.1.15,2013-08-30 17:15:00,
2013-08-30 12:25:00,89.0,73.3,29.74,SW,227,8.0,8.0,60,0.00,,,0.00,Wunderground v.1.15,2013-08-30 17:25:00,
2013-08-30 12:35:00,89.5,73.8,29.73,SSW,200,7.0,7.0,60,0.00,,,0.00,Wunderground v.1.15,2013-08-30 17:35:00,
2013-08-30 12:45:00,89.9,73.7,29.73,SSW,196,7.0,9.0,59,0.00,,,0.00,Wunderground v.1.15,2013-08-30 17:45:00,
2013-08-30 12:50:00,90.1,73.8,29.73,SW,223,7.0,7.0,59,0.00,,,0.00,Wunderground v.1.15,2013-08-30 17:50:00,
2013-08-30 13:00:00,90.5,74.2,29.73,South,185,4.0,7.0,59,0.00,,,0.00,Wunderground v.1.15,2013-08-30 18:00:00,
2013-08-30 13:10:00,91.2,74.4,29.73,South,191,5.0,5.0,58,0.00,,,0.00,Wunderground v.1.15,2013-08-30 18:10:00,
2013-08-30 13:15:00,91.4,74.5,29.72,SW,217,6.0,8.0,58,0.00,,,0.00,Wunderground v.1.15,2013-08-30 18:15:00,
2013-08-30 13:25:00,91.4,74.0,29.72,SW,230,7.0,7.0,57,0.00,,,0.00,Wunderground v.1.15,2013-08-30 18:25:00,
2013-08-30 13:35:00,91.8,73.9,29.71,SSW,193,6.0,8.0,56,0.00,,,0.00,Wunderground v.1.15,2013-08-30 18:35:00,
2013-08-30 13:45:00,92.3,74.3,29.71,SSW,192,6.0,7.0,56,0.00,,,0.00,Wunderground v.1.15,2013-08-30 18:45:00,
2013-08-30 13:55:00,92.3,72.7,29.71,SSW,208,7.0,9.0,53,0.00,,,0.00,Wunderground v.1.15,2013-08-30 18:55:00,
2013-08-30 14:00:00,92.5,72.9,29.71,SSW,213,8.0,8.0,53,0.00,,,0.00,Wunderground v.1.15,2013-08-30 19:00:00,
2013-08-30 14:10:00,92.9,73.2,29.71,SSW,192,6.0,6.0,53,0.00,,,0.00,Wunderground v.1.15,2013-08-30 19:10:00,
2013-08-30 14:15:00,93.4,73.7,29.71,South,185,5.0,6.0,53,0.00,,,0.00,Wunderground v.1.15,2013-08-30 19:15:00,
2013-08-30 14:25:00,94.5,74.2,29.71,SSW,206,3.0,9.0,52,0.00,,,0.00,Wunderground v.1.15,2013-08-30 19:25:00,
2013-08-30 14:35:00,94.5,73.6,29.70,South,178,5.0,5.0,51,0.00,,,0.00,Wunderground v.1.15,2013-08-30 19:35:00,
2013-08-30 14:40:00,94.7,73.8,29.70,SSW,195,5.0,6.0,51,0.00,,,0.00,Wunderground v.1.15,2013-08-30 19:40:00,
2013-08-30 14:50:00,94.9,72.8,29.69,South,189,5.0,8.0,49,0.00,,,0.00,Wunderground v.1.15,2013-08-30 19:50:00,
2013-08-30 14:55:00,94.7,72.6,29.69,SSW,200,5.0,8.0,49,0.00,,,0.00,Wunderground v.1.15,2013-08-30 19:55:00,
2013-08-30 15:05:00,94.7,72.6,29.69,SSW,213,7.0,9.0,49,0.00,,,0.00,Wunderground v.1.15,2013-08-30 20:05:00,
2013-08-30 15:15:00,94.9,72.1,29.68,SSW,192,4.0,6.0,48,0.00,,,0.00,Wunderground v.1.15,2013-08-30 20:15:00,
2013-08-30 15:20:00,95.1,72.3,29.68,SSW,206,6.0,8.0,48,0.00,,,0.00,Wunderground v.1.15,2013-08-30 20:20:00,
2013-08-30 15:30:00,95.1,71.7,29.68,SSW,195,6.0,6.0,47,0.00,,,0.00,Wunderground v.1.15,2013-08-30 20:30:00,
2013-08-30 15:35:00,95.4,72.0,29.68,SSW,193,5.0,6.0,47,0.00,,,0.00,Wunderground v.1.15,2013-08-30 20:35:00,
2013-08-30 15:45:00,95.6,72.2,29.67,SSW,206,5.0,6.0,47,0.00,,,0.00,Wunderground v.1.15,2013-08-30 20:45:00,
2013-08-30 15:55:00,95.6,70.9,29.67,SW,215,5.0,9.0,45,0.00,,,0.00,Wunderground v.1.15,2013-08-30 20:55:00,
2013-08-30 16:00:00,95.4,70.7,29.67,SSW,210,6.0,6.0,45,0.00,,,0.00,Wunderground v.1.15,2013-08-30 21:00:00,
2013-08-30 16:10:00,95.4,70.7,29.67,SSW,198,5.0,5.0,45,0.00,,,0.00,Wunderground v.1.15,2013-08-30 21:10:00,
2013-08-30 16:20:00,95.6,70.9,29.67,SSW,202,8.0,8.0,45,0.00,,,0.00,Wunderground v.1.15,2013-08-30 21:20:00,
2013-08-30 16:25:00,95.6,70.9,29.67,SSW,195,4.0,8.0,45,0.00,,,0.00,Wunderground v.1.15,2013-08-30 21:25:00,
2013-08-30 16:35:00,96.1,70.7,29.66,South,189,3.0,5.0,44,0.00,,,0.00,Wunderground v.1.15,2013-08-30 21:35:00,
2013-08-30 16:45:00,96.1,70.7,29.66,South,184,5.0,5.0,44,0.00,,,0.00,Wunderground v.1.15,2013-08-30 21:45:00,
2013-08-30 16:55:00,96.1,71.3,29.66,SSW,193,5.0,6.0,45,0.00,,,0.00,Wunderground v.1.15,2013-08-30 21:55:00,
2013-08-30 17:00:00,95.9,71.1,29.66,SSW,192,6.0,6.0,45,0.00,,,0.00,Wunderground v.1.15,2013-08-30 22:00:00,
2013-08-30 17:10:00,95.9,71.1,29.66,South,188,5.0,7.0,45,0.00,,,0.00,Wunderground v.1.15,2013-08-30 22:10:00,
2013-08-30 17:20:00,95.6,70.9,29.65,South,191,3.0,3.0,45,0.00,,,0.00,Wunderground v.1.15,2013-08-30 22:20:00,
2013-08-30 17:25:00,95.6,70.9,29.65,South,191,4.0,4.0,45,0.00,,,0.00,Wunderground v.1.15,2013-08-30 22:25:00,
2013-08-30 17:35:00,95.6,70.9,29.65,South,189,1.0,4.0,45,0.00,,,0.00,Wunderground v.1.15,2013-08-30 22:35:00,
2013-08-30 17:45:00,95.9,71.1,29.65,South,186,4.0,4.0,45,0.00,,,0.00,Wunderground v.1.15,2013-08-30 22:45:00,
2013-08-30 17:55:00,95.6,70.9,29.65,South,184,2.0,4.0,45,0.00,,,0.00,Wunderground v.1.15,2013-08-30 22:55:00,
2013-08-30 18:00:00,95.6,70.9,29.65,South,184,1.0,2.0,45,0.00,,,0.00,Wunderground v.1.15,2013-08-30 23:00:00,
2013-08-30 18:10:00,95.4,72.0,29.65,South,184,2.0,2.0,47,0.00,,,0.00,Wunderground v.1.15,2013-08-30 23:10:00,
2013-08-30 18:20:00,95.4,72.0,29.64,South,184,1.0,1.0,47,0.00,,,0.00,Wunderground v.1.15,2013-08-30 23:20:00,
2013-08-30 18:30:00,95.4,72.6,29.64,South,184,0.0,0.0,48,0.00,,,0.00,Wunderground v.1.15,2013-08-30 23:30:00,
2013-08-30 18:35:00,95.1,72.9,29.64,South,184,1.0,1.0,49,0.00,,,0.00,Wunderground v.1.15,2013-08-30 23:35:00,
2013-08-30 18:45:00,95.6,73.4,29.64,South,184,0.0,0.0,49,0.00,,,0.00,Wunderground v.1.15,2013-08-30 23:45:00,
2013-08-30 18:55:00,95.9,73.7,29.64,South,184,0.0,0.0,49,0.00,,,0.00,Wunderground v.1.15,2013-08-30 23:55:00,
2013-08-30 19:00:00,95.9,73.7,29.63,South,184,0.0,0.0,49,0.00,,,0.00,Wunderground v.1.15,2013-08-31 00:00:00,
2013-08-30 19:10:00,95.9,73.7,29.63,South,174,0.0,0.0,49,0.00,,,0.00,Wunderground v.1.15,2013-08-31 00:10:00,
2013-08-30 19:20:00,95.6,73.4,29.63,South,174,0.0,0.0,49,0.00,,,0.00,Wunderground v.1.15,2013-08-31 00:20:00,
2013-08-30 19:30:00,95.1,72.9,29.63,South,174,0.0,0.0,49,0.00,,,0.00,Wunderground v.1.15,2013-08-31 00:30:00,
2013-08-30 19:40:00,94.5,72.4,29.63,South,174,0.0,0.0,49,0.00,,,0.00,Wunderground v.1.15,2013-08-31 00:40:00,
2013-08-30 19:50:00,93.6,71.6,29.63,South,174,0.0,0.0,49,0.00,,,0.00,Wunderground v.1.15,2013-08-31 00:50:00,
2013-08-30 19:55:00,93.2,71.8,29.63,South,174,0.0,0.0,50,0.00,,,0.00,Wunderground v.1.15,2013-08-31 00:55:00,
2013-08-30 20:05:00,91.8,70.5,29.64,South,174,0.0,0.0,50,0.00,,,0.00,Wunderground v.1.15,2013-08-31 01:05:00,
2013-08-30 20:15:00,91.0,70.4,29.63,South,174,0.0,0.0,51,0.00,,,0.00,Wunderground v.1.15,2013-08-31 01:15:00,
2013-08-30 20:25:00,89.9,69.3,29.63,South,174,0.0,0.0,51,0.00,,,0.00,Wunderground v.1.15,2013-08-31 01:25:00,
2013-08-30 20:30:00,89.5,69.5,29.63,South,174,0.0,0.0,52,0.00,,,0.00,Wunderground v.1.15,2013-08-31 01:30:00,
2013-08-30 20:40:00,88.8,68.9,29.63,South,174,0.0,0.0,52,0.00,,,0.00,Wunderground v.1.15,2013-08-31 01:40:00,
2013-08-30 20:50:00,88.0,68.7,29.63,South,174,0.0,0.0,53,0.00,,,0.00,Wunderground v.1.15,2013-08-31 01:50:00,
2013-08-30 21:00:00,87.2,68.5,29.64,South,174,0.0,0.0,54,0.00,,,0.00,Wunderground v.1.15,2013-08-31 02:00:00,
2013-08-30 21:10:00,86.5,68.4,29.64,South,174,0.0,0.0,55,0.00,,,0.00,Wunderground v.1.15,2013-08-31 02:10:00,
2013-08-30 21:15:00,86.1,68.0,29.64,South,174,0.0,0.0,55,0.00,,,0.00,Wunderground v.1.15,2013-08-31 02:15:00,
2013-08-30 21:25:00,85.1,67.6,29.64,South,174,0.0,0.0,56,0.00,,,0.00,Wunderground v.1.15,2013-08-31 02:25:00,
2013-08-30 21:35:00,84.1,67.2,29.64,South,174,0.0,0.0,57,0.00,,,0.00,Wunderground v.1.15,2013-08-31 02:35:00,
2013-08-30 21:45:00,83.6,67.3,29.64,South,174,0.0,0.0,58,0.00,,,0.00,Wunderground v.1.15,2013-08-31 02:45:00,
2013-08-30 21:50:00,83.4,67.1,29.64,South,174,0.0,0.0,58,0.00,,,0.00,Wunderground v.1.15,2013-08-31 02:50:00,
2013-08-30 22:00:00,82.8,67.0,29.64,South,174,0.0,0.0,59,0.00,,,0.00,Wunderground v.1.15,2013-08-31 03:00:00,
2013-08-30 22:10:00,82.0,66.7,29.64,SSW,198,1.0,4.0,60,0.00,,,0.00,Wunderground v.1.15,2013-08-31 03:10:00,
2013-08-30 22:15:00,82.0,67.2,29.64,SSW,202,3.0,4.0,61,0.00,,,0.00,Wunderground v.1.15,2013-08-31 03:15:00,
2013-08-30 22:25:00,81.8,67.0,29.64,SSW,199,3.0,4.0,61,0.00,,,0.00,Wunderground v.1.15,2013-08-31 03:25:00,
2013-08-30 22:35:00,81.4,67.1,29.64,SSW,202,2.0,2.0,62,0.00,,,0.00,Wunderground v.1.15,2013-08-31 03:35:00,
2013-08-30 22:40:00,81.2,66.5,29.64,SSW,213,3.0,4.0,61,0.00,,,0.00,Wunderground v.1.15,2013-08-31 03:40:00,
2013-08-30 22:50:00,81.1,66.8,29.64,SW,215,3.0,4.0,62,0.00,,,0.00,Wunderground v.1.15,2013-08-31 03:50:00,
2013-08-30 23:00:00,80.7,66.5,29.65,SW,219,4.0,4.0,62,0.00,,,0.00,Wunderground v.1.15,2013-08-31 04:00:00,
2013-08-30 23:05:00,80.7,66.5,29.65,SW,222,4.0,4.0,62,0.00,,,0.00,Wunderground v.1.15,2013-08-31 04:05:00,
2013-08-30 23:15:00,81.1,66.8,29.65,WNW,284,4.0,6.0,62,0.00,,,0.00,Wunderground v.1.15,2013-08-31 04:15:00,
2013-08-30 23:25:00,80.7,66.5,29.65,WNW,299,4.0,6.0,62,0.00,,,0.00,Wunderground v.1.15,2013-08-31 04:25:00,
2013-08-30 23:30:00,80.1,66.4,29.65,West,281,4.0,4.0,63,0.00,,,0.00,Wunderground v.1.15,2013-08-31 04:30:00,
2013-08-30 23:35:00,80.1,66.4,29.65,WNW,294,3.0,4.0,63,0.00,,,0.00,Wunderground v.1.15,2013-08-31 04:35:00,
2013-08-30 23:40:00,79.8,66.5,29.65,WNW,292,3.0,3.0,64,0.00,,,0.00,Wunderground v.1.15,2013-08-31 04:40:00,
2013-08-30 23:45:00,79.6,66.3,29.66,WSW,253,3.0,4.0,64,0.00,,,0.00,Wunderground v.1.15,2013-08-31 04:45:00,
2013-08-30 23:50:00,79.9,67.1,29.66,West,263,4.0,4.0,65,0.00,,,0.00,Wunderground v.1.15,2013-08-31 04:50:00,
2013-08-30 23:55:00,80.3,67.5,29.66,WSW,244,4.0,4.0,65,0.00,,,0.00,Wunderground v.1.15,2013-08-31 04:55:00,